Date,TemperatureHighF,TemperatureAvgF,TemperatureLowF,DewpointHighF,DewpointAvgF,DewpointLowF,HumidityHigh,HumidityAvg,HumidityLow,PressureMaxIn,PressureMinIn,WindSpeedMaxMPH,WindSpeedAvgMPH,GustSpeedMaxMPH,PrecipitationSumIn
2013-1-1,20.6,9.7,1.0,11.1,3.5,-3.7,93,76,62,30.21,30.00,2,0,5,0.00
2013-1-2,23.3,13.3,2.7,13.3,6.0,-2.4,85,73,59,30.26,30.13,6,0,8,0.00
2013-1-3,20.0,8.3,-1.1,6.9,-0.3,-6.8,79,68,53,30.35,30.23,9,1,12,0.00
2013-1-4,22.1,9.2,1.3,5.8,-0.1,-5.3,76,66,48,30.27,30.10,9,0,11,0.00
2013-1-5,22.7,8.0,-2.9,9.3,0.2,-8.1,81,71,53,30.36,30.19,9,1,12,0.00
2013-1-6,24.0,12.2,0.8,11.4,4.1,-4.3,81,70,55,30.30,30.02,8,1,12,0.00
2013-1-7,30.3,15.7,6.1,14.0,6.6,0.5,84,68,47,30.07,29.93,8,1,12,0.00
2013-1-8,32.3,18.0,7.7,16.4,9.4,2.1,80,70,49,30.33,29.99,7,1,11,0.00
2013-1-9,34.4,21.3,13.0,19.9,12.9,7.1,82,70,51,30.34,30.02,10,2,12,0.01
2013-1-10,35.1,22.9,12.1,24.3,15.3,7.7,85,73,60,30.03,29.38,10,2,17,0.00
2013-1-11,37.2,21.2,9.0,28.3,14.3,1.3,91,75,52,29.79,29.30,35,13,48,0.00
2013-1-12,18.0,6.8,-2.7,6.4,-1.4,-8.4,81,69,53,29.88,29.77,14,1,16,0.00
2013-1-13,16.2,5.3,-2.4,7.5,-1.7,-9.5,81,72,64,29.97,29.83,4,0,7,0.00
2013-1-14,13.4,-0.9,-11.1,-1.5,-9.8,-16.9,79,66,47,30.15,29.95,11,1,15,0.00
2013-1-15,15.3,3.7,-9.9,1.9,-6.0,-17.0,75,64,50,30.37,30.13,13,2,17,0.00
2013-1-16,26.2,12.2,3.2,12.6,2.8,-4.5,79,66,53,30.45,30.31,10,2,14,0.00
2013-1-17,31.3,16.3,6.8,15.5,7.8,1.6,82,70,49,30.49,30.33,10,1,12,0.01
2013-1-18,31.4,16.3,6.9,16.6,8.7,2.0,84,72,52,30.41,30.24,7,1,10,0.02
2013-1-19,33.2,22.0,7.7,17.2,10.9,3.3,92,64,45,30.43,30.28,7,1,10,0.00
2013-1-20,32.6,17.4,6.2,15.4,8.1,1.1,83,68,44,30.35,30.18,7,1,10,0.00
2013-1-21,35.6,19.2,8.9,17.0,8.4,3.1,79,64,37,30.34,30.20,9,1,10,0.00
2013-1-22,35.2,18.8,7.1,15.6,7.9,1.4,81,64,38,30.36,30.24,7,1,10,0.00
2013-1-23,33.8,19.9,8.7,17.0,8.9,1.3,75,63,42,30.37,30.25,7,1,9,0.00
2013-1-24,34.4,25.8,16.2,24.1,16.7,8.6,80,68,50,30.29,30.20,6,0,8,0.00
2013-1-25,37.5,32.5,29.1,31.4,28.0,23.2,92,83,75,30.28,30.14,5,0,6,0.04
2013-1-26,40.9,34.9,31.9,37.1,32.5,30.1,94,91,81,30.14,29.75,7,0,11,0.17
2013-1-27,41.4,35.0,32.5,36.3,32.5,30.5,95,90,78,29.86,29.66,8,2,14,0.12
2013-1-28,34.6,29.8,20.9,32.4,27.6,16.3,100,91,82,29.76,29.62,11,2,14,0.20
2013-1-29,28.0,18.4,8.0,20.6,12.9,3.0,86,79,61,29.95,29.71,10,1,14,0.10
2013-1-30,25.7,19.2,14.3,19.5,15.5,9.4,92,85,73,30.10,29.95,10,2,14,0.00
2013-1-31,21.2,17.3,12.3,19.0,14.7,9.4,91,89,87,30.22,30.08,5,1,10,0.00
2013-2-1,39.5,33.1,22.4,27.6,22.6,16.9,82,65,55,30.28,30.15,13,3,17,0.06
2013-2-2,41.1,24.9,13.9,26.1,17.8,10.5,92,75,54,30.43,30.27,12,1,19,0.00
2013-2-3,37.4,25.5,17.7,23.8,17.9,12.7,84,73,53,30.29,30.02,7,1,9,0.00
2013-2-4,39.2,25.0,13.2,25.2,17.3,9.2,87,73,55,30.14,30.01,8,0,12,0.00
2013-2-5,43.0,27.1,15.4,24.0,17.8,10.9,84,69,41,30.13,29.89,11,2,13,0.00
2013-2-6,42.9,31.1,20.8,30.1,23.1,15.7,89,73,53,30.05,29.85,9,1,12,0.00
2013-2-7,41.6,27.6,19.1,23.9,17.8,11.4,92,69,34,30.18,29.96,11,2,15,0.00
2013-2-8,45.9,33.3,19.5,27.8,20.0,12.4,76,59,37,29.98,29.54,23,4,32,0.00
2013-2-9,38.4,30.7,22.4,29.4,23.8,12.2,90,76,60,29.65,29.49,15,1,18,0.04
2013-2-10,34.4,24.5,14.3,20.6,15.5,8.0,85,69,47,29.82,29.65,11,1,18,0.01
2013-2-11,27.7,21.3,10.9,20.9,14.7,2.4,90,76,55,30.03,29.79,17,3,22,0.03
2013-2-12,30.2,17.5,3.8,15.1,6.9,-1.8,88,64,44,30.16,30.03,7,1,11,0.01
2013-2-13,37.1,28.3,22.0,21.5,17.5,13.7,77,64,50,30.18,30.02,17,3,21,0.01
2013-2-14,40.9,29.1,21.8,23.8,18.4,11.9,83,65,38,30.20,30.06,5,0,9,0.00
2013-2-15,40.2,27.1,18.2,21.1,15.5,10.6,81,63,38,30.36,30.20,12,2,16,0.00
2013-2-16,43.7,26.0,14.1,21.5,14.3,7.7,79,63,38,30.39,30.06,8,2,14,0.00
2013-2-17,46.0,30.6,17.4,22.5,16.5,10.4,77,58,33,30.08,29.59,24,6,30,0.00
2013-2-18,35.4,27.4,19.7,17.3,11.4,6.2,65,52,32,30.03,29.82,29,3,41,0.00
2013-2-19,47.2,27.0,11.8,19.3,10.7,3.3,70,52,24,30.00,29.59,12,2,16,0.00
2013-2-20,44.6,32.2,21.1,25.5,17.8,10.8,73,56,35,29.59,29.39,19,5,33,0.00
2013-2-21,38.4,32.9,29.7,25.3,20.5,17.6,76,61,47,29.72,29.51,15,5,19,0.00
2013-2-23,28.0,25.6,22.9,25.2,22.7,19.8,90,89,87,29.68,29.63,10,3,18,0.00
2013-2-24,32.9,23.9,17.5,23.0,17.0,9.5,90,76,53,30.02,29.67,14,3,19,0.15
2013-2-25,35.3,20.8,7.0,18.0,10.6,1.9,83,66,41,30.12,29.84,11,2,14,0.00
2013-2-26,31.5,25.0,15.8,20.9,15.3,7.2,88,67,46,30.12,29.77,15,1,20,0.01
2013-2-27,37.6,21.3,8.0,15.5,8.5,2.6,79,59,31,30.27,30.10,11,1,18,0.01
2013-2-28,36.9,23.6,8.5,19.6,9.9,0.5,75,57,36,30.37,30.24,17,2,29,0.00
2013-3-1,41.2,31.2,24.0,29.2,23.8,17.1,89,75,55,30.43,30.30,7,1,20,0.01
2013-3-2,51.5,34.3,20.0,29.2,23.2,15.5,87,66,38,30.44,30.11,10,1,14,0.00
2013-3-3,51.3,38.2,29.0,35.0,28.0,23.6,89,69,42,30.11,29.76,30,4,41,0.10
2013-3-4,45.4,33.9,20.9,37.6,24.6,12.4,93,71,44,30.20,29.74,21,3,30,0.04
2013-3-5,47.6,28.8,15.2,18.1,12.2,6.2,77,53,20,30.30,30.04,10,2,14,0.00
2013-3-6,59.2,38.4,21.6,28.7,19.8,12.7,71,50,24,30.08,29.77,24,3,29,0.00
2013-3-7,61.2,44.8,32.0,26.7,21.5,15.5,68,43,18,29.92,29.79,23,3,29,0.00
2013-3-8,53.7,41.3,33.5,34.4,26.1,17.4,89,57,28,29.83,29.60,25,4,33,0.00
2013-3-9,38.9,33.3,27.3,33.0,27.4,14.2,93,80,48,30.03,29.55,25,6,33,0.01
2013-3-10,48.7,32.7,20.6,22.6,18.4,13.7,83,58,31,30.20,30.02,12,2,19,0.00
2013-3-11,50.0,35.9,23.4,26.9,22.2,17.8,82,60,32,30.17,29.99,19,5,24,0.00
2013-3-12,54.9,41.9,28.9,29.6,26.7,23.3,82,56,34,30.23,30.07,15,1,19,0.00
2013-3-13,63.8,43.4,27.4,30.9,25.9,22.5,84,55,23,30.35,30.22,12,1,15,0.00
2013-3-14,67.2,46.7,30.2,30.7,25.7,22.3,73,48,20,30.37,30.17,17,2,21,0.00
2013-3-15,67.6,48.5,34.4,32.1,27.7,25.3,70,48,22,30.21,29.90,22,2,27,0.00
2013-3-16,59.7,47.3,36.6,41.3,30.7,27.1,70,53,35,29.94,29.75,20,2,26,0.03
2013-3-17,51.7,41.6,32.6,39.2,25.5,10.5,90,57,25,29.84,29.62,32,9,41,0.08
2013-3-18,51.4,39.2,26.4,17.7,14.1,10.2,61,37,23,29.96,29.84,27,8,34,0.00
2013-3-19,53.4,40.3,30.2,20.8,9.8,-2.7,59,32,11,30.15,29.92,13,2,21,0.00
2013-3-20,53.5,38.5,24.5,29.5,15.2,5.4,67,40,23,30.16,29.79,17,1,25,0.00
2013-3-21,48.6,39.2,30.2,36.7,27.3,11.7,92,66,24,29.85,29.65,20,4,25,0.32
2013-3-22,48.2,33.1,22.8,22.1,18.0,8.5,81,57,21,29.84,29.55,29,5,38,0.00
2013-3-23,33.3,26.0,18.5,20.0,11.9,4.7,83,56,36,30.05,29.73,19,5,28,0.00
2013-3-24,34.4,23.3,15.7,21.3,10.8,4.1,75,59,32,30.12,29.99,20,2,26,0.00
2013-3-25,45.7,26.5,10.7,10.6,5.7,-3.6,76,46,15,30.18,30.03,11,2,16,0.00
2013-3-26,59.4,39.5,22.6,22.1,15.0,6.9,56,39,21,30.09,29.80,22,5,28,0.00
2013-3-27,64.6,48.2,32.7,29.5,22.8,15.4,72,41,16,30.00,29.86,18,4,23,0.00
2013-3-28,69.7,49.7,33.3,26.6,22.0,19.1,60,36,18,30.05,29.92,18,3,24,0.00
2013-3-29,66.0,51.2,38.7,33.1,27.8,22.0,59,42,24,30.14,30.02,31,4,38,0.00
2013-3-30,67.5,50.2,33.8,33.9,28.4,18.1,80,48,16,30.17,29.98,23,4,37,0.00
2013-3-31,67.6,49.3,30.9,29.3,23.4,14.0,73,41,13,30.11,29.90,29,3,34,0.00
2013-4-1,63.4,48.1,34.4,42.6,28.1,18.6,68,47,33,29.97,29.76,20,2,38,0.01
2013-4-2,56.1,45.1,35.1,37.1,32.0,28.5,83,61,39,29.96,29.83,20,2,35,0.00
2013-4-3,68.8,49.0,32.4,34.5,27.6,18.8,85,49,19,30.11,29.95,15,1,20,0.00
2013-4-4,68.0,50.5,32.0,28.7,24.5,20.5,66,39,19,30.18,29.96,21,3,26,0.00
2013-4-5,69.0,52.0,41.9,42.2,29.9,23.4,76,46,21,29.99,29.74,33,6,61,0.01
2013-4-6,64.5,47.6,34.4,37.8,30.9,23.1,85,58,22,29.99,29.80,27,4,43,0.00
2013-4-7,63.7,48.0,33.3,37.9,29.1,20.2,90,55,23,29.93,29.62,28,6,37,0.00
2013-4-8,60.9,46.2,38.8,39.7,30.3,21.2,95,57,27,29.63,29.30,32,4,41,0.10
2013-4-9,39.8,28.5,18.2,37.2,23.6,11.4,91,82,65,29.97,29.40,22,4,35,0.04
2013-4-10,44.2,27.0,11.3,25.1,14.9,5.8,81,62,32,30.07,29.89,10,1,16,0.04
2013-4-11,53.6,39.2,30.1,37.1,28.4,19.8,82,66,42,29.95,29.77,19,3,26,0.01
2013-4-12,63.4,47.2,34.8,38.6,29.2,18.8,89,56,20,29.91,29.80,13,2,17,0.01
2013-4-13,64.1,46.4,30.6,40.2,27.2,21.6,86,52,21,29.86,29.34,35,7,46,0.13
2013-4-14,52.6,43.5,34.8,38.7,19.6,6.4,89,42,19,29.72,29.50,27,8,33,0.01
2013-4-15,42.0,34.9,31.7,35.1,28.9,18.8,94,81,39,29.69,29.47,7,1,11,0.31
2013-4-16,48.6,36.1,25.6,39.2,31.2,23.3,93,83,66,29.81,29.50,22,6,27,0.18
2013-4-17,32.4,25.7,19.8,24.3,18.6,11.2,92,76,50,30.04,29.71,13,2,18,0.23
2013-4-18,37.6,25.9,12.8,18.0,12.8,7.0,79,59,37,30.22,30.02,13,1,18,0.02
2013-4-19,47.4,33.9,19.1,29.7,19.8,12.5,79,58,37,30.24,29.98,18,4,27,0.00
2013-4-20,53.4,41.1,33.4,41.3,34.6,29.1,92,78,51,30.07,29.90,25,2,33,0.07
2013-4-21,60.4,44.4,30.2,39.2,29.7,18.3,93,63,21,30.13,29.92,23,4,31,0.01
2013-4-22,61.2,47.6,37.8,34.8,29.4,23.2,75,51,27,29.93,29.78,23,3,29,0.00
2013-4-23,48.1,38.8,30.0,31.3,17.9,10.4,68,45,24,30.08,29.88,16,4,21,0.00
2013-4-24,64.3,42.4,27.2,23.3,16.3,12.7,62,38,15,30.14,30.04,12,2,20,0.00
2013-4-25,68.3,48.8,29.6,24.1,19.0,14.8,57,34,16,30.10,29.83,20,5,25,0.00
2013-4-26,72.0,52.4,34.1,28.3,20.7,14.9,58,32,13,30.19,29.95,12,1,20,0.00
2013-4-27,77.3,54.2,34.1,30.5,23.6,17.5,58,33,16,30.25,30.02,14,2,17,0.00
2013-4-28,77.6,57.2,36.8,31.3,26.0,20.0,56,33,16,30.10,29.83,20,4,27,0.00
2013-4-29,77.8,61.3,40.7,35.5,29.1,24.0,60,32,17,29.91,29.66,26,6,33,0.00
2013-4-30,73.3,57.5,41.6,42.2,31.2,24.9,81,39,20,29.89,29.55,30,6,45,0.09
2013-5-1,51.9,41.9,34.4,36.8,27.4,16.1,93,61,28,30.37,29.86,18,3,25,0.34
2013-5-2,57.4,41.4,25.1,24.6,18.2,13.0,72,42,19,30.54,30.35,13,2,21,0.00
2013-5-3,68.7,48.1,27.5,26.2,20.6,15.4,66,38,15,30.36,29.90,13,2,16,0.00
2013-5-4,80.5,54.9,33.8,31.8,25.2,19.4,61,35,14,29.95,29.77,18,3,38,0.00
2013-5-5,71.2,58.3,45.0,36.2,29.6,22.3,56,36,17,29.94,29.84,21,4,30,0.00
2013-5-6,67.0,53.3,45.0,45.3,36.1,26.5,92,55,30,29.99,29.84,22,4,33,0.06
2013-5-7,67.2,48.3,38.8,47.1,41.8,36.7,94,80,39,30.01,29.90,13,2,19,0.11
2013-5-8,48.4,44.0,39.7,43.8,40.3,36.4,92,87,72,30.04,29.91,18,4,25,0.15
2013-5-9,76.0,52.2,39.7,46.2,40.0,33.8,94,68,28,30.11,29.97,15,3,21,0.01
2013-5-10,76.0,55.2,37.6,44.0,36.0,31.3,86,54,21,30.22,30.09,15,2,23,0.00
2013-5-11,77.8,56.9,41.0,41.1,34.2,30.0,75,46,21,30.33,30.17,25,3,33,0.00
2013-5-12,79.8,61.0,42.6,43.8,36.8,33.0,71,44,21,30.29,30.10,10,1,14,0.00
2013-5-13,84.0,65.0,46.5,42.5,37.0,30.5,66,40,18,30.26,30.03,15,3,20,0.00
2013-5-14,85.8,64.9,47.9,43.7,38.7,34.1,67,41,20,30.10,29.89,22,4,32,0.00
2013-5-15,79.4,64.1,52.1,48.9,42.5,38.5,79,48,28,29.99,29.82,22,4,30,0.01
2013-5-16,81.7,63.5,45.1,46.3,38.8,31.0,82,47,18,29.96,29.75,22,6,30,0.00
2013-5-17,81.4,64.7,46.4,38.8,29.3,20.6,58,30,11,29.90,29.77,27,6,35,0.00
2013-5-18,67.0,57.0,46.8,51.1,36.0,23.5,80,46,24,29.95,29.84,31,4,37,0.08
2013-5-19,63.4,51.0,39.8,42.1,36.1,29.5,84,60,30,29.95,29.84,20,4,25,0.01
2013-5-20,62.7,52.1,40.7,44.0,37.6,33.1,88,60,37,30.05,29.92,23,3,34,0.02
2013-5-21,72.5,58.1,44.2,40.5,35.4,32.1,73,45,25,30.07,29.83,16,2,20,0.00
2013-5-22,84.5,66.1,45.2,38.7,31.4,25.3,65,33,13,29.88,29.68,26,7,36,0.00
2013-5-23,86.3,72.7,54.9,34.5,24.8,15.9,38,18,9,29.85,29.68,34,9,44,0.00
2013-5-24,82.8,69.2,51.0,30.0,22.5,15.9,40,18,10,29.99,29.78,25,8,34,0.00
2013-5-25,85.3,65.6,44.0,30.7,23.9,18.8,48,23,10,30.00,29.83,24,6,31,0.00
2013-5-26,83.5,70.5,45.1,33.9,25.5,18.1,46,21,10,29.99,29.80,22,9,28,0.00
2013-5-27,80.3,63.8,41.8,29.1,23.7,18.5,48,23,13,29.92,29.72,21,5,26,0.00
2013-5-28,76.9,59.8,44.9,42.6,29.6,22.2,79,34,17,29.78,29.57,28,5,33,0.00
2013-5-29,67.4,51.8,43.3,49.1,42.3,37.8,93,73,36,29.79,29.66,20,3,22,0.12
2013-5-30,70.9,56.1,40.1,40.1,31.2,19.8,86,46,18,29.92,29.76,23,8,30,0.00
2013-5-31,72.3,59.7,42.4,31.2,23.5,14.8,54,27,12,30.11,29.88,24,5,32,0.00
2013-6-1,85.6,61.8,41.5,36.7,28.7,21.4,55,30,16,30.21,30.02,12,1,20,0.00
2013-6-2,86.3,65.7,42.4,36.1,29.8,24.3,62,31,11,30.09,29.78,22,5,29,0.00
2013-6-3,87.8,68.7,46.4,37.8,31.0,25.3,48,27,12,29.93,29.76,27,6,40,0.00
2013-6-4,87.0,67.8,45.8,36.8,30.5,20.5,48,26,14,30.01,29.82,24,5,33,0.00
2013-6-5,83.0,66.4,45.8,38.4,31.8,25.8,55,30,16,30.06,29.93,16,3,21,0.00
2013-6-6,86.5,67.4,46.2,38.4,32.9,28.8,53,31,14,30.09,29.93,15,4,22,0.00
2013-6-7,87.8,70.1,52.7,42.7,36.6,32.1,52,31,17,30.04,29.84,20,3,28,0.00
2013-6-8,89.5,71.6,52.6,42.7,37.4,31.4,54,32,15,29.98,29.85,17,2,27,0.00
2013-6-9,97.3,74.2,51.1,43.0,36.4,30.5,51,28,14,30.09,29.91,15,2,21,0.00
2013-6-10,97.3,76.8,54.1,44.0,35.0,24.3,48,25,11,30.02,29.82,22,5,29,0.00
2013-6-11,88.7,73.9,55.9,37.5,29.3,25.3,38,21,11,30.06,29.88,31,8,40,0.00
2013-6-12,92.5,73.7,53.5,37.9,30.6,25.2,37,22,11,30.11,29.97,19,4,28,0.00
2013-6-13,90.9,75.0,57.9,52.0,34.7,28.1,47,24,13,30.07,29.83,38,7,45,0.05
2013-6-14,89.7,72.4,52.6,38.3,28.6,14.1,52,24,9,30.04,29.86,20,5,26,0.00
2013-6-15,90.5,69.5,47.1,36.1,28.5,18.0,38,23,12,30.06,29.93,27,6,36,0.00
2013-6-16,93.3,71.4,56.7,47.5,40.3,33.5,45,33,19,30.15,29.99,20,3,29,0.00
2013-6-17,95.0,72.6,55.2,44.4,39.0,26.6,58,33,11,30.12,29.96,20,4,29,0.00
2013-6-18,92.0,73.8,55.5,42.4,32.1,15.9,45,25,10,30.03,29.77,24,5,31,0.00
2013-6-19,91.2,72.5,49.2,32.0,22.3,15.9,36,17,7,29.86,29.69,31,7,42,0.00
2013-6-20,90.0,71.1,48.0,30.8,22.7,14.4,36,17,9,29.95,29.78,26,5,35,0.00
2013-6-21,89.7,71.5,47.9,31.7,23.5,17.8,36,18,9,29.97,29.80,25,5,46,0.00
2013-6-22,87.5,70.6,48.6,32.5,25.6,20.0,37,20,10,29.93,29.81,23,6,34,0.00
2013-6-23,90.0,71.0,48.9,33.3,27.5,20.7,38,21,11,29.99,29.75,18,4,27,0.00
2013-6-24,87.7,71.0,51.7,34.3,28.4,23.5,42,22,11,29.90,29.79,30,7,40,0.00
2013-6-25,89.3,74.0,55.6,39.5,35.1,29.3,41,25,16,30.04,29.85,20,5,29,0.00
2013-6-26,96.0,76.1,53.6,42.0,36.2,29.1,47,26,12,30.15,30.03,21,4,25,0.00
2013-6-27,107.8,80.9,58.5,45.6,37.7,30.0,39,24,11,30.27,30.11,13,4,18,0.00
2013-6-28,105.0,82.4,61.5,45.8,39.7,34.1,41,24,11,30.27,30.06,13,3,19,0.00
2013-6-29,99.2,79.6,64.8,64.9,43.8,38.3,57,29,15,30.18,29.99,18,2,23,0.04
2013-6-30,96.1,78.3,59.3,48.6,44.6,40.3,54,33,17,30.18,29.98,20,4,27,0.00
2013-7-1,96.5,79.1,60.8,47.8,42.9,38.1,52,30,16,30.22,30.05,20,4,28,0.00
2013-7-2,95.3,79.6,61.9,47.7,41.4,36.2,47,27,16,30.18,30.00,18,5,24,0.00
2013-7-3,94.9,73.1,57.7,52.0,41.1,34.8,65,34,14,30.12,29.95,31,4,42,0.00
2013-7-4,95.4,77.0,58.3,51.1,46.2,41.3,68,38,17,30.07,29.85,13,3,17,0.00
2013-7-5,93.5,77.6,61.5,57.0,51.2,46.1,79,43,22,30.00,29.79,24,4,36,0.04
2013-7-6,94.5,81.3,61.4,56.3,50.4,46.3,77,37,21,30.05,29.88,22,4,29,0.02
2013-7-7,96.7,74.1,55.7,59.6,50.5,41.4,80,50,16,30.12,29.92,30,3,40,0.22
2013-7-8,92.7,82.9,58.1,56.1,47.7,41.7,77,33,18,30.19,30.04,21,5,27,0.00
2013-7-9,104.7,80.0,60.7,48.6,44.2,38.6,53,31,14,30.24,30.06,18,3,25,0.00
2013-7-10,101.1,82.1,62.3,48.3,40.2,32.9,47,25,11,30.17,29.93,16,3,22,0.00
2013-7-11,97.6,77.4,59.0,50.6,40.9,32.4,39,28,18,30.08,29.86,25,4,33,0.00
2013-7-12,91.0,77.8,69.7,56.5,54.2,48.8,62,46,24,30.10,29.96,26,5,33,0.00
2013-7-13,92.0,76.0,62.0,60.1,54.3,47.1,88,52,23,30.17,30.00,19,4,27,0.02
2013-7-14,97.3,74.9,61.7,61.7,55.4,49.6,87,54,24,30.21,30.02,18,4,27,0.07
2013-7-15,99.5,77.2,61.3,54.3,51.5,46.4,70,44,17,30.11,29.89,17,3,22,0.00
2013-7-16,95.3,75.4,60.7,55.9,52.8,49.1,67,47,24,30.12,29.95,14,2,19,0.00
2013-7-17,93.3,76.1,62.1,59.8,55.2,50.6,80,51,25,30.23,30.06,14,3,21,0.01
2013-7-18,96.8,75.0,60.7,58.8,55.6,50.8,82,55,25,30.24,30.02,17,2,22,0.00
2013-7-19,99.7,77.5,61.5,56.7,51.7,44.7,79,46,18,30.19,29.94,14,2,19,0.00
2013-7-20,98.3,78.9,58.7,53.1,44.4,33.1,67,35,11,30.10,29.86,15,2,23,0.00
2013-7-21,101.5,78.6,58.4,44.0,38.1,33.9,46,26,11,30.03,29.86,15,2,20,0.00
2013-7-22,102.9,81.6,62.6,47.5,35.9,22.3,41,22,7,30.09,29.91,15,2,20,0.00
2013-7-23,103.8,79.3,57.2,38.4,30.8,24.8,32,19,9,30.11,29.96,16,3,24,0.00
2013-7-24,92.0,77.4,63.7,48.4,39.9,28.4,42,27,19,30.14,30.01,25,3,39,0.00
2013-7-25,93.8,73.5,59.9,63.4,49.4,43.4,72,45,21,30.18,30.04,19,3,25,0.06
2013-7-26,101.3,76.7,58.0,51.6,44.9,36.2,68,38,13,30.26,30.04,13,2,18,0.00
2013-7-27,91.8,72.1,60.6,55.9,45.7,35.8,63,41,23,30.16,29.93,24,5,37,0.00
2013-7-28,78.5,66.1,60.2,63.7,58.0,52.4,93,77,43,30.04,29.90,13,2,17,0.32
2013-7-29,82.8,68.9,57.3,57.2,52.6,44.5,87,60,29,30.18,30.01,23,6,30,0.00
2013-7-30,91.6,70.9,52.9,52.5,47.4,41.1,79,47,24,30.31,30.16,18,2,30,0.00
2013-7-31,93.5,74.3,56.3,47.8,43.1,37.7,62,37,16,30.32,30.10,17,4,23,0.00
2013-8-1,77.5,66.0,57.3,59.3,45.9,39.8,89,50,31,30.23,30.10,23,3,31,0.04
2013-8-2,89.5,69.8,53.7,58.2,51.8,46.9,92,60,26,30.17,30.00,19,4,25,0.00
2013-8-3,90.0,74.6,62.1,54.1,50.4,45.8,71,45,24,30.19,30.04,15,4,21,0.01
2013-8-4,93.7,71.6,57.0,55.5,49.6,44.8,70,49,20,30.20,30.06,28,4,35,0.00
2013-8-5,89.3,71.6,59.6,52.3,49.2,44.9,71,48,23,30.20,30.04,17,4,24,0.00
2013-8-6,86.3,67.8,56.5,52.7,48.2,42.1,74,51,24,30.13,30.04,20,2,23,0.00
2013-8-7,90.9,69.5,55.7,50.4,45.7,38.5,68,46,22,30.11,29.96,16,2,24,0.00
2013-8-8,89.2,68.7,58.2,50.2,45.2,39.6,60,45,20,30.13,29.97,19,2,28,0.00
2013-8-9,93.5,70.0,55.0,47.3,44.3,37.8,68,43,18,30.19,30.05,22,3,28,0.00
2013-8-10,83.8,68.1,54.9,46.3,42.2,38.3,66,41,21,30.24,30.13,27,6,39,0.00
2013-8-11,91.3,67.7,48.1,46.8,41.9,37.0,78,45,17,30.30,30.08,17,2,27,0.00
2013-8-12,90.2,68.8,53.3,53.4,42.5,37.6,66,41,20,30.20,30.07,24,3,33,0.09
2013-8-13,85.5,67.0,51.0,48.4,43.9,37.0,78,48,22,30.24,30.10,30,4,43,0.00
2013-8-14,89.8,69.6,50.6,55.7,39.5,34.1,64,37,16,30.24,30.07,17,2,25,0.03
2013-8-15,92.6,71.0,51.0,41.6,36.2,30.3,54,31,14,30.22,30.06,15,2,19,0.00
2013-8-16,97.6,74.0,52.4,38.6,32.7,28.3,45,25,10,30.22,30.05,12,2,16,0.00
2013-8-17,94.9,74.0,54.8,45.6,36.9,29.4,40,27,14,30.21,30.03,24,4,27,0.00
2013-8-18,95.4,74.5,60.2,59.3,45.1,39.6,67,38,18,30.20,30.03,19,3,33,0.18
2013-8-19,101.0,75.3,56.4,51.7,46.1,38.2,69,41,14,30.22,29.98,11,2,16,0.00
2013-8-20,90.0,72.8,59.9,55.3,47.1,41.2,77,42,24,30.16,30.01,30,3,40,0.02
2013-8-21,92.2,72.8,54.0,54.5,49.7,40.4,88,51,22,30.19,30.02,12,3,18,0.00
2013-8-22,91.5,75.2,63.3,52.7,47.9,43.1,57,40,23,30.22,30.01,16,2,21,0.00
2013-8-23,88.7,70.2,60.0,57.5,51.7,48.8,77,54,29,30.11,29.95,39,3,49,0.01
2013-8-24,86.7,70.7,56.9,53.7,48.3,37.7,80,50,19,30.14,30.02,18,4,26,0.00
2013-8-25,74.9,64.9,58.7,60.3,55.0,47.7,92,71,45,30.24,30.13,17,2,23,0.04
2013-8-26,81.1,67.8,57.7,59.8,55.8,52.1,93,69,38,30.27,30.13,16,2,23,0.00
2013-8-27,87.8,71.8,56.2,57.7,53.4,48.6,86,56,27,30.23,30.04,19,4,27,0.00
2013-8-28,91.7,74.9,57.3,55.1,49.0,41.5,78,45,18,30.18,30.03,17,3,22,0.00
2013-8-29,95.7,76.7,59.0,51.7,46.8,41.0,64,38,16,30.24,30.07,15,2,18,0.00
2013-8-30,90.7,75.5,65.0,53.6,49.8,46.3,55,42,25,30.24,30.08,18,3,26,0.00
2013-8-31,94.4,74.5,64.7,58.5,51.8,47.4,73,48,22,30.17,30.00,18,3,24,0.02
2013-9-1,94.1,75.2,59.5,55.1,52.0,41.9,77,49,21,30.15,29.97,12,2,17,0.00
2013-9-2,91.3,74.8,58.0,54.0,49.3,46.4,68,43,23,30.18,30.00,18,4,25,0.00
2013-9-3,93.5,76.1,58.6,52.6,47.6,38.7,65,40,16,30.20,30.04,17,3,22,0.00
2013-9-4,102.5,78.7,66.7,57.7,49.6,45.8,62,38,18,30.25,30.05,22,2,33,0.00
2013-9-5,95.4,77.2,63.6,60.7,51.2,44.8,67,43,19,30.26,30.06,14,2,19,0.00
2013-9-6,95.0,75.4,60.0,57.3,50.8,42.3,81,48,18,30.26,30.01,16,4,19,0.00
2013-9-7,97.8,75.0,60.6,54.7,49.4,43.7,65,43,17,30.18,29.95,12,2,18,0.02
2013-9-8,85.0,71.3,62.2,53.7,49.7,47.7,62,48,30,30.09,29.90,22,5,30,0.00
2013-9-9,66.5,60.5,57.8,57.8,54.4,48.8,93,81,59,30.05,29.98,25,1,29,0.42
2013-9-10,68.5,61.4,56.8,62.2,57.4,55.1,95,87,69,30.09,30.00,13,1,19,0.14
2013-9-11,70.1,62.1,58.4,62.7,58.0,55.4,95,87,63,30.16,30.06,13,1,18,0.17
2013-9-12,79.5,65.5,54.6,57.6,54.3,43.9,93,70,34,30.18,30.02,13,3,19,0.04
2013-9-13,81.3,64.8,55.5,57.5,53.1,45.3,93,70,31,30.12,29.86,20,1,28,0.08
2013-9-14,71.8,61.7,55.5,57.9,53.2,49.6,95,75,47,30.02,29.90,16,1,20,0.16
2013-9-15,75.7,62.5,55.0,57.7,53.0,50.0,89,72,45,30.13,30.01,7,1,12,0.00
2013-9-16,83.3,64.2,50.4,54.3,49.4,45.1,90,62,29,30.19,30.02,16,2,22,0.00
2013-9-17,79.0,61.2,50.6,58.8,49.7,44.1,81,67,37,30.11,29.86,26,2,33,0.02
2013-9-18,78.8,62.9,53.2,59.1,52.0,46.0,93,71,36,29.95,29.80,19,3,28,0.32
2013-9-19,73.7,58.6,46.2,50.3,40.9,29.0,92,58,21,30.10,29.94,15,2,19,0.01
2013-9-20,76.0,57.6,41.3,39.4,34.5,25.2,73,46,18,30.17,29.96,21,3,25,0.00
2013-9-21,79.8,62.8,46.7,48.6,38.3,33.1,63,43,24,30.04,29.78,22,4,31,0.00
2013-9-22,65.9,54.9,44.3,52.3,45.6,41.3,92,72,51,29.82,29.66,27,3,38,0.48
2013-9-23,64.4,52.5,44.1,46.7,41.7,36.9,94,70,40,30.15,29.77,14,3,19,0.07
2013-9-24,71.4,53.7,39.1,43.4,38.1,32.8,86,59,26,30.20,29.87,15,2,18,0.00
2013-9-25,77.6,61.8,43.4,39.9,32.9,27.1,66,38,18,29.88,29.49,34,10,45,0.00
2013-9-26,75.3,60.6,41.6,39.7,32.2,26.9,70,39,19,29.70,29.56,30,8,42,0.00
2013-9-27,60.2,44.8,34.1,46.9,39.8,31.6,92,83,48,30.14,29.68,24,3,31,0.44
2013-9-28,59.0,42.7,30.5,38.1,32.6,28.3,93,71,32,30.27,30.12,10,1,13,0.01
2013-9-29,66.0,47.8,32.2,38.6,33.1,28.5,89,61,29,30.23,29.99,18,3,26,0.00
2013-9-30,72.8,53.9,37.9,39.6,33.9,30.6,78,51,23,30.07,29.87,19,4,23,0.00
2013-10-1,75.0,55.8,39.5,41.0,34.4,30.8,74,48,22,30.06,29.88,17,3,25,0.00
2013-10-2,73.5,55.5,40.7,38.5,33.5,30.8,71,46,23,30.03,29.80,19,3,25,0.00
2013-10-3,71.5,50.3,32.5,37.1,33.0,29.4,91,56,23,29.93,29.59,28,6,39,0.19
2013-10-4,43.2,34.6,30.1,31.6,27.9,22.3,94,77,54,30.28,29.90,18,4,22,0.23
2013-10-5,53.6,38.5,29.6,31.1,26.1,20.3,85,63,35,30.39,30.28,8,1,11,0.00
2013-10-6,62.6,42.5,27.8,36.3,29.1,22.6,82,62,32,30.42,30.23,9,2,16,0.00
2013-10-7,68.0,48.5,33.0,39.9,34.1,28.3,85,61,29,30.29,30.00,14,1,17,0.00
2013-10-8,71.5,52.0,36.9,38.6,32.7,26.8,80,52,23,30.02,29.74,25,4,35,0.00
2013-10-9,71.0,52.5,40.0,38.3,31.8,26.0,72,47,19,29.86,29.74,18,1,24,0.00
2013-10-10,57.1,45.8,40.4,43.4,39.6,29.5,93,81,42,29.81,29.64,22,3,29,0.50
2013-10-11,53.3,44.8,40.0,41.5,38.0,35.6,91,78,55,30.06,29.77,16,7,21,0.01
2013-10-12,59.0,44.1,32.7,40.1,33.8,29.6,91,70,36,30.13,29.98,10,1,12,0.01
2013-10-13,67.3,50.2,39.0,43.7,35.9,30.8,87,60,32,30.04,29.80,23,4,31,0.07
2013-10-14,47.5,41.7,38.0,43.5,38.5,35.8,95,88,77,30.13,29.88,21,1,27,0.54
2013-10-15,50.5,41.4,32.6,37.7,32.4,26.5,92,72,48,30.15,30.03,9,1,18,0.01
2013-10-16,50.4,37.6,26.1,29.7,25.9,21.6,89,64,41,30.17,30.06,10,1,19,0.00
2013-10-17,53.7,40.1,27.7,34.0,26.1,19.7,86,60,27,30.14,29.91,16,2,22,0.00
2013-10-18,50.9,41.4,31.1,34.4,24.1,18.5,75,52,31,30.19,29.99,12,1,21,0.00
2013-10-19,55.9,39.1,24.9,29.0,23.5,18.5,79,56,29,30.22,30.01,15,2,20,0.00
2013-10-20,58.4,41.7,29.3,33.3,27.7,23.0,80,60,35,30.05,29.89,8,1,10,0.00
2013-10-21,59.6,42.5,30.2,33.3,27.4,23.5,84,58,30,30.20,30.00,10,1,14,0.00
2013-10-22,61.6,43.5,29.3,34.0,28.1,23.0,82,57,31,30.29,30.11,7,1,11,0.00
2013-10-23,64.8,45.6,31.2,36.5,29.5,25.5,81,57,28,30.22,30.04,9,2,11,0.00
2013-10-24,66.5,46.5,32.8,36.4,28.4,24.4,75,53,23,30.21,30.04,12,2,17,0.00
2013-10-25,60.1,46.4,35.1,36.1,30.7,25.8,71,55,38,30.23,30.09,10,1,13,0.00
2013-10-26,63.9,45.5,31.7,37.1,29.9,25.0,84,58,28,30.33,30.15,6,1,10,0.00
2013-10-27,62.5,44.7,30.6,35.9,28.9,23.0,76,56,32,30.18,29.77,15,2,22,0.00
2013-10-28,65.6,52.0,38.5,33.9,27.3,21.2,69,42,20,29.78,29.61,29,4,40,0.00
2013-10-29,57.4,42.6,32.2,38.8,32.1,22.1,93,73,26,29.93,29.68,34,5,42,0.48
2013-10-30,43.2,36.2,32.3,37.4,33.3,30.5,94,90,76,29.95,29.85,22,1,29,0.14
2013-10-31,42.2,36.5,32.5,35.7,32.1,30.6,100,85,67,30.09,29.93,14,2,20,0.04
2013-11-1,52.9,40.2,32.0,37.1,31.6,26.4,92,73,41,30.27,30.05,8,1,12,0.00
2013-11-2,53.3,37.5,26.9,30.8,26.6,22.7,92,67,37,30.28,29.88,7,2,11,0.00
2013-11-3,57.2,38.9,28.0,33.0,27.1,19.6,85,66,33,29.93,29.60,25,6,32,0.00
2013-11-4,41.2,32.2,22.5,29.0,22.6,15.7,91,69,47,29.95,29.78,12,1,16,0.01
2013-11-5,38.6,29.0,19.7,27.3,18.3,11.7,92,67,36,30.26,29.90,8,0,13,0.04
2013-11-6,42.2,27.5,16.6,20.8,15.6,10.2,79,63,37,30.44,30.25,14,2,19,0.00
2013-11-7,50.1,34.3,22.3,26.8,21.9,16.5,81,63,37,30.46,30.10,7,0,11,0.00
2013-11-8,56.6,38.1,24.8,29.9,24.1,20.4,86,61,29,30.12,29.95,18,3,25,0.00
2013-11-9,56.9,38.7,26.0,30.6,24.6,20.1,80,59,32,30.21,30.09,7,0,17,0.00
2013-11-10,58.7,40.2,27.2,30.0,24.7,20.8,79,57,30,30.30,30.15,11,1,14,0.00
2013-11-11,57.6,39.4,26.7,29.8,24.4,20.3,78,58,30,30.40,30.24,6,1,10,0.00
2013-11-12,59.9,40.9,29.5,30.0,23.9,20.0,76,53,27,30.52,30.34,8,2,12,0.00
2013-11-13,52.1,38.1,27.2,28.0,23.0,18.0,69,56,34,30.40,30.08,7,1,11,0.00
2013-11-14,53.4,39.7,29.9,31.5,25.2,20.3,82,58,31,30.13,29.77,10,1,12,0.00
2013-11-15,51.0,36.3,24.1,34.8,26.2,17.9,83,68,39,29.78,29.48,23,2,32,0.01
2013-11-16,41.5,34.9,29.1,35.1,31.0,25.7,92,86,72,29.64,29.45,25,6,34,0.13
2013-11-17,50.1,37.7,29.6,32.8,28.9,24.6,87,72,47,30.14,29.64,16,2,21,0.01
2013-11-18,51.2,35.0,24.7,29.9,25.2,20.9,88,69,40,30.26,30.06,7,0,12,0.00
2013-11-19,44.0,34.9,26.3,33.9,27.3,21.1,87,75,54,30.07,29.82,6,0,9,0.01
2013-11-20,48.2,39.0,28.8,38.9,33.8,26.5,93,82,62,29.90,29.76,4,0,6,0.05
2013-11-21,45.7,35.2,24.9,40.5,31.8,19.0,93,87,72,30.26,29.82,10,1,18,0.20
2013-11-22,33.8,28.9,23.1,29.4,23.2,18.3,92,79,68,30.28,30.17,11,4,15,0.00
2013-11-23,41.1,34.1,28.9,33.4,30.3,26.8,94,86,72,30.25,30.07,7,1,11,0.13
2013-11-24,38.7,33.8,29.9,35.5,31.6,27.8,94,91,86,30.09,29.96,12,2,17,0.01
2013-11-25,41.8,30.5,23.6,29.7,24.4,19.5,93,79,53,30.31,30.02,5,0,7,0.01
2013-11-26,43.2,29.0,20.1,28.7,22.3,16.6,92,77,52,30.40,30.27,7,1,12,0.00
2013-11-27,43.6,29.9,20.9,26.6,21.9,17.1,86,73,43,30.32,30.10,6,1,6,0.00
2013-11-28,43.7,30.2,20.7,29.1,23.1,17.2,88,76,52,30.19,30.07,10,1,12,0.00
2013-11-29,32.0,30.1,27.3,28.9,26.7,24.2,92,87,84,30.33,30.18,6,1,9,0.00
2013-11-30,34.6,30.0,27.0,26.9,25.5,23.4,89,83,69,30.36,30.22,6,1,11,0.00
2013-12-1,33.4,30.8,28.2,27.8,26.2,24.9,90,83,77,30.34,30.18,9,1,12,0.00
2013-12-2,33.6,31.2,29.4,28.2,26.6,25.8,92,83,77,30.20,29.74,10,2,13,0.00
2013-12-3,37.9,30.9,23.8,29.8,26.2,21.6,92,83,70,29.74,29.35,10,1,14,0.00
2013-12-4,23.8,10.7,-5.5,21.6,5.9,-11.3,92,81,66,29.94,29.36,16,6,20,0.00
2013-12-5,9.5,-3.1,-12.7,1.6,-8.3,-17.7,92,78,68,29.94,29.79,6,1,9,0.03
2013-12-6,13.8,2.7,-3.3,6.2,-2.3,-8.1,89,79,68,30.02,29.87,5,0,9,0.00
2013-12-7,20.7,14.4,3.2,18.4,10.6,-1.3,96,84,78,30.01,29.55,5,0,7,0.00
2013-12-8,20.2,14.5,0.9,17.5,9.9,-5.0,90,82,68,29.95,29.52,27,6,33,0.00
2013-12-9,12.8,2.8,-6.1,3.8,-3.1,-11.8,88,76,63,30.40,29.94,15,3,18,0.00
2013-12-10,11.6,1.2,-10.8,3.9,-4.9,-15.6,92,75,62,30.42,30.20,8,1,10,0.00
2013-12-11,19.4,7.8,-1.5,10.2,1.8,-6.0,93,76,64,30.47,30.27,8,0,10,0.00
2013-12-12,21.9,10.0,0.7,13.9,5.0,-3.1,93,80,68,30.47,30.11,8,0,10,0.01
2013-12-13,24.0,13.4,3.1,15.6,8.5,-0.6,87,81,67,30.20,29.98,3,0,5,0.00
2013-12-14,28.3,16.6,7.8,19.5,11.6,4.3,87,81,66,30.42,30.19,6,0,7,0.00
2013-12-15,29.9,18.5,9.7,19.7,13.1,5.8,92,79,63,30.45,30.33,10,1,13,0.00
2013-12-16,31.2,19.7,11.0,21.8,14.4,7.4,92,80,65,30.43,30.32,6,1,9,0.00
2013-12-17,33.9,20.8,12.3,22.8,15.4,8.9,89,80,59,30.48,30.25,6,0,9,0.01
2013-12-18,32.1,23.3,13.7,23.6,18.2,10.4,92,81,66,30.26,29.77,11,1,14,0.00
2013-12-19,39.3,29.9,22.0,29.9,24.4,18.2,88,80,64,29.81,29.57,11,1,15,0.01
2013-12-20,35.1,30.8,22.4,31.5,27.3,18.4,93,87,74,29.68,29.61,11,1,15,0.05
2013-12-21,30.7,23.9,19.4,24.9,19.0,12.2,89,82,72,29.88,29.57,8,0,11,0.01
2013-12-22,31.6,23.8,15.6,20.6,16.4,11.5,85,74,59,30.21,29.88,16,4,20,0.00
2013-12-23,34.1,26.1,21.3,23.3,19.0,15.2,82,74,59,30.39,30.18,15,3,20,0.00
2013-12-24,35.4,24.6,12.6,28.3,19.2,7.5,89,80,66,30.39,30.15,17,2,27,0.00
2013-12-25,27.7,15.7,7.8,15.2,8.2,3.2,83,72,57,30.49,30.36,10,2,12,0.00
2013-12-26,30.3,18.1,8.5,16.3,9.1,2.3,79,68,51,30.44,30.29,10,2,13,0.00
2013-12-27,34.8,22.4,13.5,21.2,13.9,7.5,80,70,51,30.42,30.17,8,1,12,0.00
2013-12-28,33.9,22.9,14.0,22.3,16.2,9.7,85,76,58,30.18,29.91,5,0,6,0.00
2013-12-29,32.7,23.9,14.1,23.1,14.7,7.3,83,68,45,30.19,30.00,5,1,7,0.00
2013-12-30,33.5,21.7,12.5,20.4,13.6,7.0,81,71,56,30.33,30.14,8,1,10,0.00
2013-12-31,34.8,25.7,18.4,26.0,20.0,12.4,89,79,68,30.26,30.07,11,1,14,0.00
2014-1-1,40.9,29.3,19.7,26.1,19.6,11.5,84,68,37,30.29,30.02,12,2,20,0.00
2014-1-2,34.4,21.3,13.4,19.4,12.4,7.5,79,69,49,30.35,30.17,9,2,13,0.00